Location: Cañada de la Miga
(34.7595°N, 106.2317°W)
Time: 20:43:49
(UTC+00:00)

SR - All Passes

Search period start: 06 December 2021 00:00
Search period end: 16 December 2021 00:00
Orbit: 583 x 871 km, 66.7° (Epoch: 06 December)

Date Brightness Start Highest point End Pass type
(mag) Time Alt. Az. Time Alt. Az. Time Alt. Az.
06 Dec - 04:33:19 10° SSE 04:36:47 20° ESE 04:40:06 10° ENE night (unlit)
06 Dec - 06:14:21 10° WSW 06:18:34 33° WNW 06:22:34 10° N night (unlit)
06 Dec - 14:57:10 10° NNW 15:01:33 69° ENE 15:06:14 10° SSE daylight
07 Dec - 05:23:57 10° SSW 05:28:39 78° WNW 05:33:05 10° NNE night (unlit)
07 Dec - 14:07:45 10° N 14:11:37 29° ENE 14:15:41 10° ESE daylight
07 Dec - 15:49:56 10° WNW 15:53:27 23° WSW 15:57:08 10° SSW daylight
08 Dec - 04:34:23 10° S 04:38:52 43° ESE 04:43:04 10° NE night (unlit)
08 Dec - 06:18:03 10° W 06:21:00 17° NW 06:23:52 10° NNW night (unlit)
08 Dec - 13:19:10 10° NNE 13:21:31 14° NE 13:23:55 10° E visible
08 Dec - 14:59:25 10° NW 15:03:44 54° WSW 15:08:22 10° S daylight
09 Dec - 03:45:58 10° SSE 03:49:12 18° ESE 03:52:17 10° ENE night (unlit)
09 Dec - 05:26:40 10° SW 05:30:56 36° WNW 05:34:59 10° N night (unlit)
09 Dec - 14:09:32 10° NNW 14:13:56 62° ENE 14:18:36 10° SE daylight
09 Dec - 15:54:45 10° W 15:55:28 10° WSW 15:56:10 10° WSW daylight
10 Dec - 04:36:20 10° SSW 04:41:03 85° WNW 04:45:27 10° NNE night (unlit)
10 Dec - 13:20:11 10° N 13:23:59 27° ENE 13:27:57 10° ESE visible
10 Dec - 15:02:10 10° NW 15:05:52 25° WSW 15:09:44 10° SSW daylight
11 Dec - 03:46:54 10° S 03:51:16 39° ESE 03:55:23 10° NE night (unlit)
11 Dec - 05:30:13 10° W 05:33:20 18° NW 05:36:22 10° N night (unlit)
11 Dec - 12:31:46 10° NNE 12:33:51 13° NE 12:35:59 10° E visible
11 Dec - 14:11:45 10° NW 14:16:08 60° WSW 14:20:50 10° SSE daylight
12 Dec - 02:58:39 10° SSE 03:01:36 17° ESE 03:04:26 10° ENE night (unlit)
12 Dec - 04:38:58 10° SW 04:43:18 39° WNW 04:47:24 10° N night (unlit)
12 Dec - 13:21:56 10° NNW 13:26:18 57° ENE 13:30:58 10° SE visible
12 Dec - 15:06:17 10° W 15:07:52 12° WSW 15:09:30 10° SW daylight
13 Dec - 03:48:45 10° SSW 03:53:26 87° ESE 03:57:49 10° NNE night (unlit)
13 Dec - 12:32:38 10° N 12:36:20 25° ENE 12:40:13 10° ESE visible
13 Dec - 14:14:25 10° NW 14:18:15 28° WSW 14:22:18 10° SSW daylight
14 Dec - 02:59:24 10° S 03:03:39 35° ESE 03:07:41 10° NE night (unlit)
14 Dec - 04:42:24 10° WSW 04:45:41 19° NW 04:48:52 10° N night (unlit)
14 Dec - 11:44:25 10° NNE 11:46:11 12° NE 11:47:59 10° ENE visible
14 Dec - 13:24:05 10° NNW 13:28:30 66° WSW 13:33:16 10° SSE visible
15 Dec - 02:11:22 10° SE 02:14:00 15° ESE 02:16:33 10° ENE night (unlit)
15 Dec - 03:51:18 10° SW 03:55:40 42° WNW 03:59:49 10° NNE night (unlit)
15 Dec - 12:34:19 10° NNW 12:38:40 52° ENE 12:43:19 10° SE visible
15 Dec - 14:18:10 10° W 14:20:17 13° WSW 14:22:27 10° SW daylight
